| time (UTC) | temp C | wind direction | speed KPH | gust KPH | rain 1hr cm | rain 24hr cm | rain mn cm | humidity % | barometer mb |
| 20260505111804 | 13 | 0 | 0.0 | 0.0 | 0.00 | 0.00 | 0.00 | 69 | 1015.8 |
| 20260505110904 | 13 | 276 | 0.0 | 3.2 | 0.00 | 0.00 | 0.00 | 69 | 1015.9 |
| 20260505101804 | 12 | 246 | 0.0 | 1.6 | 0.00 | 0.00 | 0.00 | 71 | 1015.3 |
| 20260505100904 | 13 | 0 | 0.0 | 0.0 | 0.00 | 0.00 | 0.00 | 65 | 1015.2 |
| 20260505100004 | 13 | 0 | 0.0 | 0.0 | 0.00 | 0.00 | 0.00 | 66 | 1015.2 |
| 20260505095404 | 13 | 238 | 0.0 | 1.6 | 0.00 | 0.00 | 0.00 | 68 | 1015.1 |
| 20260505094504 | 13 | 214 | 0.0 | 3.2 | 0.00 | 0.00 | 0.00 | 67 | 1014.9 |
| 20260505093604 | 14 | 313 | 0.0 | 1.6 | 0.00 | 0.00 | 0.00 | 63 | 1014.9 |
| 20260505092704 | 13 | 283 | 0.0 | 1.6 | 0.00 | 0.00 | 0.00 | 63 | 1014.9 |
| 20260505091804 | 14 | 269 | 0.0 | 1.6 | 0.00 | 0.00 | 0.00 | 66 | 1015.5 |
| 20260505090904 | 14 | 0 | 0.0 | 0.0 | 0.00 | 0.00 | 0.00 | 64 | 1015.1 |
| 20260505090004 | 15 | 343 | 0.0 | 1.6 | 0.00 | 0.00 | 0.00 | 62 | 1015.1 |
| 20260505085404 | 15 | 352 | 1.6 | 4.8 | 0.00 | 0.00 | 0.00 | 60 | 1015.2 |
| 20260505084504 | 14 | 218 | 0.0 | 4.8 | 0.00 | 0.00 | 0.00 | 64 | 1015.2 |
| 20260505083604 | 15 | 310 | 0.0 | 3.2 | 0.00 | 0.00 | 0.00 | 62 | 1014.9 |
| 20260505082704 | 15 | 250 | 0.0 | 4.8 | 0.00 | 0.00 | 0.00 | 61 | 1014.6 |
| 20260505081804 | 15 | 274 | 1.6 | 3.2 | 0.00 | 0.00 | 0.00 | 59 | 1014.6 |
| 20260505080904 | 16 | 247 | 1.6 | 6.4 | 0.00 | 0.00 | 0.00 | 55 | 1014.4 |
| 20260505080004 | 15 | 240 | 0.0 | 3.2 | 0.00 | 0.00 | 0.00 | 55 | 1014.4 |
| 20260505075404 | 15 | 278 | 0.0 | 1.6 | 0.00 | 0.00 | 0.00 | 56 | 1014.3 |
| 20260505074525 | 15 | 257 | 0.0 | 3.2 | 0.00 | 0.00 | 0.00 | 61 | 1014.4 |
| 20260505073604 | 16 | 211 | 0.0 | 1.6 | 0.00 | 0.00 | 0.00 | 57 | 1014.4 |
| 20260505072704 | 15 | 293 | 0.0 | 1.6 | 0.00 | 0.00 | 0.00 | 56 | 1014.4 |
| 20260505071804 | 15 | 299 | 0.0 | 1.6 | 0.00 | 0.00 | 0.00 | 57 | 1014.2 |
| 20260505070904 | 15 | 252 | 0.0 | 3.2 | 0.00 | 0.00 | 0.00 | 59 | 1014.2 |
| 20260505070004 | 16 | 225 | 0.0 | 4.8 | 0.00 | 0.00 | 0.00 | 57 | 1014.3 |
| 20260505065404 | 16 | 213 | 0.0 | 4.8 | 0.00 | 0.00 | 0.00 | 55 | 1014.3 |
| 20260505064504 | 16 | 237 | 1.6 | 4.8 | 0.00 | 0.00 | 0.00 | 55 | 1013.9 |
| 20260505063625 | 16 | 236 | 1.6 | 4.8 | 0.00 | 0.00 | 0.00 | 52 | 1014.1 |
| 20260505062725 | 15 | 249 | 0.0 | 3.2 | 0.00 | 0.00 | 0.00 | 52 | 1014.2 |
| 20260505061804 | 16 | 237 | 1.6 | 3.2 | 0.00 | 0.00 | 0.00 | 56 | 1014.1 |
| 20260505060904 | 16 | 258 | 1.6 | 3.2 | 0.00 | 0.00 | 0.00 | 54 | 1014.0 |
| 20260505060004 | 16 | 233 | 1.6 | 4.8 | 0.00 | 0.00 | 0.00 | 52 | 1014.0 |
| 20260505055425 | 16 | 228 | 1.6 | 4.8 | 0.00 | 0.00 | 0.00 | 54 | 1014.2 |
| 20260505054504 | 16 | 233 | 0.0 | 3.2 | 0.00 | 0.00 | 0.00 | 51 | 1014.2 |
| 20260505053604 | 15 | 238 | 1.6 | 6.4 | 0.00 | 0.00 | 0.00 | 51 | 1014.0 |
| 20260505052725 | 16 | 241 | 0.0 | 3.2 | 0.00 | 0.00 | 0.00 | 52 | 1014.0 |
| 20260505051804 | 16 | 238 | 0.0 | 3.2 | 0.00 | 0.00 | 0.00 | 50 | 1014.0 |
| 20260505050904 | 16 | 217 | 0.0 | 3.2 | 0.00 | 0.00 | 0.00 | 57 | 1014.1 |
| 20260505040904 | 18 | 252 | 0.0 | 4.8 | 0.00 | 0.00 | 0.00 | 43 | 1014.0 |
| 20260505040005 | 18 | 274 | 1.6 | 6.4 | 0.00 | 0.00 | 0.00 | 49 | 1013.8 |
| 20260505035404 | 17 | 316 | 0.0 | 3.2 | 0.00 | 0.00 | 0.00 | 51 | 1014.1 |
| 20260505034504 | 18 | 286 | 0.0 | 3.2 | 0.00 | 0.00 | 0.00 | 50 | 1014.0 |
| 20260505033604 | 18 | 274 | 0.0 | 3.2 | 0.00 | 0.00 | 0.00 | 46 | 1014.2 |
| 20260505032724 | 19 | 248 | 1.6 | 6.4 | 0.00 | 0.00 | 0.00 | 50 | 1013.9 |
| 20260505031804 | 19 | 230 | 1.6 | 4.8 | 0.00 | 0.00 | 0.00 | 44 | 1013.9 |
| 20260505030904 | 20 | 221 | 1.6 | 11.3 | 0.00 | 0.00 | 0.00 | 46 | 1014.0 |
| 20260505030004 | 20 | 203 | 3.2 | 17.7 | 0.00 | 0.00 | 0.00 | 45 | 1014.2 |
| 20260505025404 | 20 | 201 | 3.2 | 17.7 | 0.00 | 0.00 | 0.00 | 44 | 1014.1 |
| 20260505024504 | 20 | 218 | 3.2 | 12.9 | 0.00 | 0.00 | 0.00 | 45 | 1014.0 |
| 20260505023604 | 19 | 248 | 1.6 | 4.8 | 0.00 | 0.00 | 0.00 | 47 | 1014.0 |
| 20260505022704 | 20 | 243 | 1.6 | 6.4 | 0.00 | 0.00 | 0.00 | 48 | 1014.0 |
| 20260505021804 | 19 | 290 | 0.0 | 3.2 | 0.00 | 0.00 | 0.00 | 52 | 1014.0 |
| 20260505020904 | 20 | 239 | 0.0 | 9.7 | 0.00 | 0.00 | 0.00 | 52 | 1014.1 |
| 20260505020004 | 20 | 231 | 1.6 | 9.7 | 0.00 | 0.00 | 0.00 | 49 | 1014.1 |
| 20260505015404 | 20 | 219 | 3.2 | 6.4 | 0.00 | 0.00 | 0.00 | 49 | 1014.0 |
| 20260505014504 | 20 | 220 | 3.2 | 6.4 | 0.00 | 0.00 | 0.00 | 50 | 1014.1 |
| 20260505013604 | 20 | 225 | 1.6 | 4.8 | 0.00 | 0.00 | 0.00 | 50 | 1014.1 |
| 20260505012725 | 20 | 236 | 1.6 | 3.2 | 0.00 | 0.00 | 0.00 | 51 | 1013.9 |
| 20260505011804 | 20 | 226 | 3.2 | 9.7 | 0.00 | 0.00 | 0.00 | 51 | 1013.8 |
| 20260505010904 | 20 | 237 | 1.6 | 4.8 | 0.00 | 0.00 | 0.00 | 51 | 1013.8 |
| 20260505010004 | 20 | 211 | 3.2 | 11.3 | 0.00 | 0.00 | 0.00 | 50 | 1013.6 |
| 20260505005404 | 20 | 229 | 3.2 | 9.7 | 0.00 | 0.00 | 0.00 | 50 | 1013.5 |
| 20260505004504 | 20 | 224 | 1.6 | 9.7 | 0.00 | 0.00 | 0.00 | 51 | 1013.2 |
| 20260505003604 | 20 | 229 | 1.6 | 6.4 | 0.00 | 0.00 | 0.00 | 51 | 1013.3 |
| 20260505002725 | 20 | 227 | 1.6 | 6.4 | 0.00 | 0.00 | 0.00 | 50 | 1013.0 |
| 20260505001803 | 21 | 210 | 3.2 | 11.3 | 0.00 | 0.00 | 0.00 | 50 | 1013.0 |
| 20260505000903 | 21 | 241 | 3.2 | 9.7 | 0.00 | 0.00 | 0.00 | 51 | 1013.1 |
| 20260505000004 | 21 | 233 | 1.6 | 6.4 | 0.00 | 0.00 | 0.00 | 52 | 1013.1 |
| 20260504235404 | 20 | 245 | 0.0 | 3.2 | 0.00 | 0.00 | 0.00 | 53 | 1012.9 |
| 20260504234504 | 20 | 280 | 0.0 | 1.6 | 0.00 | 0.00 | 0.00 | 53 | 1013.0 |
| 20260504233604 | 21 | 243 | 1.6 | 3.2 | 0.00 | 0.00 | 0.00 | 50 | 1013.0 |
| 20260504232704 | 21 | 248 | 0.0 | 3.2 | 0.00 | 0.00 | 0.00 | 49 | 1012.9 |
| 20260504231804 | 22 | 234 | 0.0 | 1.6 | 0.00 | 0.00 | 0.00 | 47 | 1012.8 |
| 20260504230925 | 22 | 223 | 1.6 | 3.2 | 0.00 | 0.00 | 0.00 | 43 | 1012.9 |
| 20260504230004 | 23 | 218 | 1.6 | 6.4 | 0.00 | 0.00 | 0.00 | 42 | 1012.9 |
| 20260504225404 | 23 | 222 | 1.6 | 9.7 | 0.00 | 0.00 | 0.00 | 39 | 1012.8 |
| 20260504224503 | 23 | 205 | 3.2 | 12.9 | 0.00 | 0.00 | 0.00 | 38 | 1012.8 |
| 20260504223625 | 23 | 231 | 1.6 | 4.8 | 0.00 | 0.00 | 0.00 | 39 | 1012.9 |
| 20260504222724 | 23 | 239 | 1.6 | 3.2 | 0.00 | 0.00 | 0.00 | 39 | 1012.9 |
| 20260504221804 | 23 | 222 | 1.6 | 11.3 | 0.00 | 0.00 | 0.00 | 39 | 1013.0 |
| 20260504220904 | 23 | 216 | 3.2 | 11.3 | 0.00 | 0.00 | 0.00 | 40 | 1013.0 |
| 20260504220004 | 23 | 202 | 3.2 | 12.9 | 0.00 | 0.00 | 0.00 | 40 | 1013.1 |
| 20260504215404 | 23 | 207 | 3.2 | 9.7 | 0.00 | 0.00 | 0.00 | 38 | 1013.1 |
| 20260504214504 | 24 | 215 | 3.2 | 9.7 | 0.00 | 0.00 | 0.00 | 39 | 1013.2 |
| 20260504213604 | 24 | 219 | 3.2 | 6.4 | 0.00 | 0.00 | 0.00 | 40 | 1013.2 |
| 20260504212704 | 24 | 216 | 3.2 | 9.7 | 0.00 | 0.00 | 0.00 | 41 | 1013.3 |
| 20260504211825 | 24 | 270 | 1.6 | 3.2 | 0.00 | 0.00 | 0.00 | 42 | 1013.3 |
| 20260504210903 | 24 | 292 | 0.0 | 3.2 | 0.00 | 0.00 | 0.00 | 44 | 1013.1 |
| 20260504210004 | 23 | 285 | 0.0 | 1.6 | 0.00 | 0.00 | 0.00 | 49 | 1013.2 |
| 20260504205403 | 22 | 272 | 1.6 | 3.2 | 0.00 | 0.00 | 0.00 | 47 | 1013.2 |
| 20260504204525 | 23 | 266 | 1.6 | 3.2 | 0.00 | 0.00 | 0.00 | 47 | 1013.1 |
| 20260504203603 | 23 | 253 | 1.6 | 4.8 | 0.00 | 0.00 | 0.00 | 46 | 1013.0 |
| 20260504202704 | 22 | 218 | 3.2 | 6.4 | 0.00 | 0.00 | 0.00 | 45 | 1013.2 |
| 20260504201825 | 22 | 265 | 1.6 | 3.2 | 0.00 | 0.00 | 0.00 | 47 | 1013.4 |
| 20260504200903 | 22 | 226 | 1.6 | 6.4 | 0.00 | 0.00 | 0.00 | 44 | 1013.5 |
| 20260504200004 | 23 | 246 | 1.6 | 4.8 | 0.00 | 0.00 | 0.00 | 42 | 1013.7 |
| 20260504195403 | 23 | 220 | 3.2 | 9.7 | 0.00 | 0.00 | 0.00 | 43 | 1013.6 |
| 20260504194504 | 23 | 214 | 3.2 | 9.7 | 0.00 | 0.00 | 0.00 | 43 | 1013.8 |
| 20260504193604 | 23 | 204 | 4.8 | 9.7 | 0.00 | 0.00 | 0.00 | 46 | 1014.0 |
| 20260504192703 | 23 | 205 | 4.8 | 9.7 | 0.00 | 0.00 | 0.00 | 44 | 1014.1 |
| 20260504191803 | 22 | 228 | 3.2 | 12.9 | 0.00 | 0.00 | 0.00 | 44 | 1014.2 |
| 20260504190904 | 23 | 213 | 4.8 | 12.9 | 0.00 | 0.00 | 0.00 | 43 | 1014.2 |
| 20260504190004 | 22 | 227 | 3.2 | 11.3 | 0.00 | 0.00 | 0.00 | 45 | 1014.2 |
| 20260504185424 | 22 | 205 | 3.2 | 11.3 | 0.00 | 0.00 | 0.00 | 44 | 1014.4 |
| 20260504184503 | 22 | 208 | 1.6 | 6.4 | 0.00 | 0.00 | 0.00 | 44 | 1014.2 |
| 20260504183624 | 20 | 220 | 1.6 | 6.4 | 0.00 | 0.00 | 0.00 | 46 | 1014.7 |
| 20260504182704 | 20 | 216 | 3.2 | 6.4 | 0.00 | 0.00 | 0.00 | 46 | 1014.9 |
| 20260504181824 | 21 | 219 | 1.6 | 6.4 | 0.00 | 0.00 | 0.00 | 46 | 1014.9 |
| 20260504180903 | 20 | 212 | 1.6 | 12.9 | 0.00 | 0.00 | 0.00 | 46 | 1015.2 |
| 20260504180004 | 21 | 270 | 1.6 | 6.4 | 0.00 | 0.00 | 0.00 | 47 | 1015.5 |
| 20260504175403 | 21 | 221 | 1.6 | 9.7 | 0.00 | 0.00 | 0.00 | 45 | 1015.2 |
| 20260504174503 | 21 | 209 | 3.2 | 6.4 | 0.00 | 0.00 | 0.00 | 44 | 1015.1 |
| 20260504173604 | 23 | 233 | 1.6 | 9.7 | 0.00 | 0.00 | 0.00 | 41 | 1015.2 |
| 20260504172703 | 23 | 227 | 1.6 | 9.7 | 0.00 | 0.00 | 0.00 | 41 | 1015.1 |
| 20260504171803 | 22 | 244 | 1.6 | 9.7 | 0.00 | 0.00 | 0.00 | 41 | 1015.3 |
| 20260504170903 | 21 | 265 | 1.6 | 3.2 | 0.00 | 0.00 | 0.00 | 45 | 1015.4 |
| 20260504150903 | 18 | 291 | 1.6 | 6.4 | 0.00 | 0.00 | 0.00 | 45 | 1016.6 |
| 20260504140903 | 14 | 259 | 0.0 | 1.6 | 0.00 | 0.00 | 0.00 | 58 | 1017.1 |